Weather History for Las Vegas, NM

Change the Weather History Date:

Monday, December 2, 2013

  Actual Average Record
Temperature  
Mean Temperature 45 °F -  
Max Temperature 60 °F 49 °F 67 °F (1958)
Min Temperature 30 °F 20 °F 2 °F (1991)
Degree Days  
Heating Degree Days 20    
Moisture  
Dew Point 16 °F    
Average Humidity 34    
Maximum Humidity 59    
Minimum Humidity 17    
Precipitation  
Precipitation 0.00 in - - ()
Sea Level Pressure  
Sea Level Pressure 29.76 in    
Wind  
Wind Speed 7 mph (West)    
Max Wind Speed 33 mph    
Max Gust Speed 46 mph    
Visibility 10 miles    
Events      
Averages and records for this station are not official NWS values.
T = Trace of Precipitation, MM = Missing Value Source: NWS Daily Summary

Daily Weather History Graph

Daily Weather History Graph

Search for Another Location

Airport:

Trip Planner

Search our weather history database for the weather conditions in past years. The results will help you decide how hot, cold, wet, or windy it might be!

Date:

Astronomy

Dec. 02, 2013 Rise Set
Actual Time 6:52 AM MST 4:47 PM MST
Civil Twilight 6:24 AM MST 5:15 PM MST
Nautical Twilight 5:53 AM MST 5:46 PM MST
Astronomical Twilight 5:22 AM MST 6:17 PM MST
Moon 6:22 AM MST (12/2) 4:51 PM MST (12/2)
Length of Visible Light 10h 50m
Length of Day
9h 54m
Waning Crescent, 0% of the Moon is Illuminated
Dec 2
Waning Crescent
Dec 2
New
Dec 9
First Quarter
Dec 17
Full
Dec 25
Last Quarter

Hourly Weather History & Observations

Time (MST) Temp. Windchill Dew Point Humidity Pressure Visibility Wind Dir Wind Speed Gust Speed Precip Events Conditions
12:53 AM 36.0 °F - 12.9 °F 39% 29.88 in 10.0 mi Calm Calm - N/A   Clear
1:53 AM 33.1 °F 30.0 °F 15.1 °F 48% 29.88 in 10.0 mi North 3.5 mph - N/A   Clear
2:53 AM 33.1 °F 28.7 °F 15.1 °F 48% 29.88 in 10.0 mi NE 4.6 mph - N/A   Clear
3:53 AM 37.0 °F 32.4 °F 14.0 °F 39% 29.86 in 10.0 mi NE 5.8 mph - N/A   Clear
4:53 AM 41.0 °F 39.0 °F 18.0 °F 40% 29.89 in 10.0 mi NE 3.5 mph - N/A   Clear
5:53 AM 30.9 °F - 18.0 °F 59% 29.94 in 10.0 mi Calm Calm - N/A   Clear
6:53 AM 32.0 °F 28.7 °F 15.1 °F 50% 29.93 in 10.0 mi SSW 3.5 mph - N/A   Clear
7:53 AM 37.0 °F - 19.9 °F 50% 29.91 in 10.0 mi Calm Calm - N/A   Clear
8:53 AM 45.0 °F - 21.0 °F 39% 29.86 in 10.0 mi Calm Calm - N/A   Clear
9:53 AM 48.9 °F - 25.0 °F 39% 29.83 in 10.0 mi SSW 4.6 mph - N/A   Clear
10:53 AM 50.0 °F - 26.1 °F 39% 29.79 in 10.0 mi SSE 5.8 mph - N/A   Clear
11:53 AM 54.0 °F - 28.0 °F 37% 29.74 in 10.0 mi South 11.5 mph - N/A   Clear
12:53 PM 57.0 °F - 27.0 °F 32% 29.70 in 10.0 mi South 12.7 mph - N/A   Clear
1:53 PM 60.1 °F - 15.1 °F 17% 29.67 in 10.0 mi WNW 24.2 mph 31.1 mph N/A   Clear
2:53 PM 57.9 °F - 14.0 °F 18% 29.66 in 10.0 mi West 29.9 mph 38.0 mph N/A   Clear
3:53 PM 55.0 °F - 14.0 °F 20% 29.66 in 10.0 mi WNW 33.4 mph 46.0 mph N/A   Clear
4:53 PM 51.1 °F - 14.0 °F 23% 29.65 in 10.0 mi West 25.3 mph 32.2 mph N/A   Clear
5:53 PM 51.1 °F - 12.0 °F 21% 29.71 in 10.0 mi WNW 24.2 mph 35.7 mph N/A   Clear
6:53 PM 46.9 °F - 12.9 °F 25% 29.72 in 10.0 mi West 10.4 mph 21.9 mph N/A   Clear
7:53 PM 48.0 °F - 10.9 °F 22% 29.68 in 10.0 mi NW 10.4 mph - N/A   Clear
8:53 PM 46.0 °F 41.4 °F 10.9 °F 24% 29.64 in 10.0 mi NW 9.2 mph - N/A   Clear
9:53 PM 45.0 °F 41.8 °F 9.0 °F 23% 29.62 in 10.0 mi South 5.8 mph - N/A   Clear
10:53 PM 42.1 °F 36.6 °F 12.9 °F 31% 29.61 in 10.0 mi SSE 9.2 mph - N/A   Clear
11:53 PM 46.0 °F 41.4 °F 10.0 °F 23% 29.55 in 10.0 mi NW 9.2 mph - N/A   Clear